TimeWET,TemperatureF,Dew PointF,Humidity,Sea Level PressureIn,VisibilityMPH,Wind Direction,Wind SpeedMPH,Gust SpeedMPH,PrecipitationIn,Events,Conditions,WindDirDegrees,DateUTC
12:00 AM,70,67,85,30.05,6,SE,2.3,,,,Partly Cloudy,130,2012-11-03 00:00:00
12:00 AM,69.8,66.2,88,30.09,6.2,Variable,2.3,-,N/A,,Scattered Clouds,0,2012-11-03 00:00:00
1:00 AM,69.8,66.2,88,30.09,6.2,SSE,3.5,-,N/A,,Scattered Clouds,160,2012-11-03 01:00:00
1:30 AM,71.6,64.4,78,30.09,6.2,SSW,4.6,-,N/A,,Scattered Clouds,200,2012-11-03 01:30:00
2:00 AM,71.6,64.4,78,30.09,6.2,SSW,3.5,-,N/A,,Scattered Clouds,210,2012-11-03 02:00:00
2:30 AM,69.8,64.4,83,30.09,6.2,WSW,3.5,-,N/A,,Scattered Clouds,250,2012-11-03 02:30:00
3:00 AM,69,65,82,30.04,6,ENE,2.3,,,,,60,2012-11-03 03:00:00
3:00 AM,69.8,64.4,83,30.09,6.2,ENE,1.2,-,N/A,,Unknown,60,2012-11-03 03:00:00
3:30 AM,68.0,64.4,88,30.09,6.2,Variable,1.2,-,N/A,,Unknown,0,2012-11-03 03:30:00
4:00 AM,68.0,64.4,88,30.06,6.2,Calm,Calm,-,N/A,,Scattered Clouds,0,2012-11-03 04:00:00
4:30 AM,69.8,62.6,78,30.06,6.2,South,4.6,-,N/A,,Scattered Clouds,180,2012-11-03 04:30:00
5:00 AM,68.0,64.4,88,30.06,6.2,ESE,4.6,-,N/A,,Scattered Clouds,110,2012-11-03 05:00:00
5:30 AM,69.8,62.6,78,30.06,6.2,South,5.8,-,N/A,,Scattered Clouds,170,2012-11-03 05:30:00
6:00 AM,68,61,73,30.01,6,ESE,3.5,,,,,110,2012-11-03 06:00:00
6:00 AM,68.0,62.6,83,30.06,6.2,ESE,3.5,-,N/A,,Unknown,110,2012-11-03 06:00:00
6:30 AM,66.2,62.6,88,30.06,6.2,ENE,3.5,-,N/A,,Scattered Clouds,70,2012-11-03 06:30:00
7:00 AM,66.2,62.6,88,30.06,6.2,East,5.8,-,N/A,,Scattered Clouds,80,2012-11-03 07:00:00
7:30 AM,66.2,62.6,88,30.06,6.2,ESE,3.5,-,N/A,,Scattered Clouds,120,2012-11-03 07:30:00
8:00 AM,69.8,60.8,73,30.06,6.2,SE,4.6,-,N/A,,Scattered Clouds,130,2012-11-03 08:00:00
8:30 AM,71.6,62.6,73,30.06,6.2,East,3.5,-,N/A,,Scattered Clouds,100,2012-11-03 08:30:00
9:00 AM,76,62,53,30.02,6,SE,1.2,,,,Scattered Clouds,130,2012-11-03 09:00:00
9:00 AM,75.2,62.6,65,30.09,5.6,Calm,Calm,-,N/A,,Mostly Cloudy,0,2012-11-03 09:00:00
9:30 AM,77.0,64.4,65,30.09,5.6,Calm,Calm,-,N/A,,Mostly Cloudy,0,2012-11-03 09:30:00
10:00 AM,78.8,62.6,57,30.09,6.2,Variable,2.3,-,N/A,,Mostly Cloudy,0,2012-11-03 10:00:00
10:30 AM,80.6,64.4,58,30.09,6.2,Variable,2.3,-,N/A,,Mostly Cloudy,0,2012-11-03 10:30:00
11:00 AM,82.4,60.8,48,30.09,6.2,West,6.9,-,N/A,,Mostly Cloudy,270,2012-11-03 11:00:00
11:30 AM,84.2,60.8,45,30.09,6.2,West,8.1,-,N/A,,Mostly Cloudy,270,2012-11-03 11:30:00
12:00 PM,85,62,35,30.00,6,WNW,11.5,,,,Scattered Clouds,290,2012-11-03 12:00:00
12:00 PM,84.2,60.8,45,30.09,6.2,West,10.4,-,N/A,,Mostly Cloudy,280,2012-11-03 12:00:00
12:30 PM,84.2,60.8,45,30.09,6.2,WNW,10.4,-,N/A,,Mostly Cloudy,290,2012-11-03 12:30:00
1:00 PM,84.2,60.8,45,30.06,6.2,WNW,9.2,-,N/A,,Mostly Cloudy,300,2012-11-03 13:00:00
1:30 PM,86.0,60.8,43,30.06,6.2,NW,5.8,-,N/A,,Mostly Cloudy,310,2012-11-03 13:30:00
2:00 PM,86.0,59.0,40,30.06,6.2,WNW,6.9,-,N/A,,Mostly Cloudy,300,2012-11-03 14:00:00
2:30 PM,86.0,60.8,43,30.06,6.2,NW,6.9,-,N/A,,Mostly Cloudy,310,2012-11-03 14:30:00
3:00 PM,86,59,30,29.96,6,West,5.8,,,,Scattered Clouds,280,2012-11-03 15:00:00
3:00 PM,86.0,59.0,40,30.06,6.2,WNW,5.8,-,N/A,,Mostly Cloudy,300,2012-11-03 15:00:00
3:30 PM,86.0,59.0,40,30.06,6.2,West,9.2,-,N/A,,Scattered Clouds,280,2012-11-03 15:30:00
4:00 PM,84.2,60.8,45,30.06,6.2,West,8.1,-,N/A,,Scattered Clouds,280,2012-11-03 16:00:00
4:30 PM,82.4,62.6,51,30.06,6.2,WSW,4.6,-,N/A,,Scattered Clouds,250,2012-11-03 16:30:00
5:00 PM,82.4,62.6,51,30.04,6.2,Variable,2.3,-,N/A,,Scattered Clouds,0,2012-11-03 17:00:00
5:30 PM,82.4,64.4,54,30.04,6.2,Calm,Calm,-,N/A,,Scattered Clouds,0,2012-11-03 17:30:00
6:00 PM,80,66,54,29.94,6,ENE,2.3,,,,Scattered Clouds,70,2012-11-03 18:00:00
6:00 PM,80.6,66.2,61,30.04,6.2,ENE,2.3,-,N/A,,Mostly Cloudy,60,2012-11-03 18:00:00
6:30 PM,78.8,64.4,61,30.01,6.2,East,8.1,-,N/A,,Mostly Cloudy,100,2012-11-03 18:30:00
7:00 PM,78.8,66.2,65,30.04,6.2,East,5.8,-,N/A,,Mostly Cloudy,90,2012-11-03 19:00:00
7:30 PM,77.0,66.2,69,30.04,5.0,Variable,2.3,-,N/A,,Mostly Cloudy,0,2012-11-03 19:30:00
8:00 PM,77.0,64.4,65,30.04,5.0,East,1.2,-,N/A,,Mostly Cloudy,90,2012-11-03 20:00:00
8:30 PM,78.8,64.4,61,30.06,5.6,SSE,2.3,-,N/A,,Mostly Cloudy,150,2012-11-03 20:30:00
9:00 PM,76,66,63,29.99,3,SW,2.3,,,,Scattered Clouds,220,2012-11-03 21:00:00
9:00 PM,77.0,66.2,69,30.06,3.1,Variable,2.3,-,N/A,,Mostly Cloudy,0,2012-11-03 21:00:00
9:30 PM,75.2,66.2,73,30.06,4.3,Variable,2.3,-,N/A,,Mostly Cloudy,0,2012-11-03 21:30:00
10:00 PM,75.2,66.2,73,30.06,6.2,West,4.6,-,N/A,,Mostly Cloudy,260,2012-11-03 22:00:00
10:30 PM,75.2,66.2,73,30.06,6.2,WSW,6.9,-,N/A,,Mostly Cloudy,250,2012-11-03 22:30:00
11:00 PM,71.6,66.2,83,30.06,6.2,WSW,3.5,-,N/A,,Mostly Cloudy,250,2012-11-03 23:00:00
11:30 PM,71.6,66.2,83,30.06,6.2,SSW,2.3,-,N/A,,Mostly Cloudy,210,2012-11-03 23:30:00